When you browse on this site, cookies collect data to enhance your experience and personalize the content and advertising you see.
Visit our Privacy Policy to learn more. By continuing to use the site, you agree to this use of cookies and data.
  • Em Portugal
  • Lista de países
  • Para 7 dias
  • Temperatura da água
  • Mapa do tempo
  • Widgets de tempo
  • user-avatar
    Iniciar Sessão

    Previsão horária em Kotonu

    Hoje, 26 Janeiro, Domingo

    Tempo Temperatura Precipitação Vento Pressão Humidade
    00:00 +25°C° 0 mm 1 m/s 758 mmHg 51%
    01:00 +25°C° 0 mm 1 m/s 758 mmHg 49%
    02:00 +24°C° 0 mm 2 m/s 758 mmHg 47%
    03:00 +23°C° 0 mm 2 m/s 757 mmHg 44%
    04:00 +23°C° 0 mm 2 m/s 758 mmHg 42%
    05:00 +22°C° 0 mm 3 m/s 758 mmHg 41%
    06:00 +21°C° 0 mm 3 m/s 759 mmHg 46%
    07:00 +25°C° 0 mm 3 m/s 759 mmHg 37%
    08:00 +28°C° 0 mm 3 m/s 760 mmHg 28%
    09:00 +30°C° 0 mm 3 m/s 760 mmHg 19%
    10:00 +34°C° 0 mm 2 m/s 759 mmHg 16%
    11:00 +36°C° 0 mm 2 m/s 759 mmHg 13%
    12:00 +37°C° 0 mm 1 m/s 758 mmHg 10%
    13:00 +38°C° 0 mm 2 m/s 758 mmHg 12%
    14:00 +38°C° 0 mm 3 m/s 757 mmHg 14%
    15:00 +37°C° 0 mm 4 m/s 756 mmHg 17%
    16:00 +35°C° 0 mm 4 m/s 756 mmHg 26%
    17:00 +32°C° 0 mm 4 m/s 756 mmHg 35%
    18:00 +29°C° 0 mm 4 m/s 756 mmHg 44%
    19:00 +28°C° 0 mm 4 m/s 757 mmHg 49%
    20:00 +28°C° 0 mm 4 m/s 758 mmHg 55%
    21:00 +27°C° 0 mm 4 m/s 758 mmHg 60%
    22:00 +27°C° 0 mm 4 m/s 758 mmHg 62%
    23:00 +26°C° 0 mm 4 m/s 758 mmHg 65%

    Amanhã, 27 Janeiro, Segunda-feira

    Tempo Temperatura Precipitação Vento Pressão Humidade
    00:00 +26°C° 0 mm 3 m/s 758 mmHg 67%
    01:00 +25°C° 0 mm 3 m/s 758 mmHg 69%
    02:00 +24°C° 0 mm 3 m/s 757 mmHg 71%
    03:00 +23°C° 0 mm 2 m/s 757 mmHg 72%
    04:00 +23°C° 0 mm 2 m/s 757 mmHg 72%
    05:00 +23°C° 0 mm 2 m/s 758 mmHg 72%
    06:00 +23°C° 0 mm 2 m/s 758 mmHg 72%
    07:00 +25°C° 0 mm 2 m/s 758 mmHg 63%
    08:00 +28°C° 0 mm 2 m/s 759 mmHg 54%
    09:00 +31°C° 0 mm 2 m/s 760 mmHg 46%
    10:00 +35°C° 0 mm 2 m/s 759 mmHg 37%
    11:00 +37°C° 0 mm 2 m/s 759 mmHg 29%
    12:00 +40°C° 0 mm 2 m/s 758 mmHg 21%
    13:00 +38°C° 0 mm 3 m/s 757 mmHg 27%
    14:00 +37°C° 0 mm 4 m/s 756 mmHg 34%
    15:00 +35°C° 0 mm 5 m/s 756 mmHg 40%
    16:00 +33°C° 0 mm 5 m/s 756 mmHg 49%
    17:00 +32°C° 0 mm 6 m/s 756 mmHg 57%
    18:00 +29°C° 0 mm 6 m/s 756 mmHg 66%
    19:00 +29°C° 0 mm 6 m/s 757 mmHg 68%
    20:00 +28°C° 0 mm 5 m/s 757 mmHg 70%
    21:00 +28°C° 0 mm 5 m/s 758 mmHg 72%
    22:00 +28°C° 0 mm 5 m/s 758 mmHg 74%
    23:00 +27°C° 0 mm 5 m/s 758 mmHg 76%

    Depois de amanhã, 28 Janeiro, Terça-feira

    Tempo Temperatura Precipitação Vento Pressão Humidade
    00:00 +27°C° 0 mm 4 m/s 758 mmHg 78%
    01:00 +26°C° 0 mm 4 m/s 758 mmHg 80%
    02:00 +26°C° 0 mm 4 m/s 757 mmHg 82%
    03:00 +26°C° 0 mm 4 m/s 757 mmHg 84%
    04:00 +26°C° 0 mm 3 m/s 757 mmHg 85%
    05:00 +25°C° 0 mm 3 m/s 758 mmHg 86%
    06:00 +25°C° 0 mm 3 m/s 758 mmHg 86%
    07:00 +27°C° 0 mm 3 m/s 759 mmHg 77%
    08:00 +29°C° 0 mm 3 m/s 759 mmHg 68%
    09:00 +33°C° 0 mm 3 m/s 760 mmHg 59%
    10:00 +34°C° 0 mm 3 m/s 759 mmHg 53%
    11:00 +35°C° 0 mm 4 m/s 759 mmHg 48%
    12:00 +36°C° 0 mm 4 m/s 758 mmHg 43%
    13:00 +36°C° 0 mm 4 m/s 757 mmHg 46%
    14:00 +35°C° 0 mm 4 m/s 757 mmHg 48%
    15:00 +34°C° 0 mm 5 m/s 756 mmHg 51%
    16:00 +33°C° 0 mm 5 m/s 756 mmHg 58%
    17:00 +32°C° 0 mm 5 m/s 756 mmHg 64%
    18:00 +29°C° 0 mm 5 m/s 756 mmHg 70%
    19:00 +29°C° 0 mm 5 m/s 757 mmHg 72%
    20:00 +29°C° 0 mm 5 m/s 757 mmHg 74%
    21:00 +28°C° 0 mm 5 m/s 758 mmHg 76%
    22:00 +28°C° 0 mm 5 m/s 758 mmHg 78%
    23:00 +28°C° 0 mm 5 m/s 758 mmHg 80%

    29 Janeiro, Quarta-feira

    Tempo Temperatura Precipitação Vento Pressão Humidade
    00:00 +27°C° 0 mm 4 m/s 757 mmHg 82%
    01:00 +27°C° 0 mm 4 m/s 757 mmHg 84%
    02:00 +27°C° 0 mm 4 m/s 757 mmHg 85%
    03:00 +26°C° 0 mm 3 m/s 756 mmHg 87%
    04:00 +26°C° 0 mm 3 m/s 757 mmHg 88%
    05:00 +26°C° 0 mm 2 m/s 757 mmHg 90%
    06:00 +25°C° 0 mm 2 m/s 757 mmHg 91%
    07:00 +28°C° 0 mm 2 m/s 758 mmHg 80%
    08:00 +30°C° 0 mm 1 m/s 759 mmHg 69%
    09:00 +33°C° 0 mm 1 m/s 759 mmHg 57%
    10:00 +34°C° 0 mm 1 m/s 759 mmHg 52%
    11:00 +36°C° 0 mm 2 m/s 758 mmHg 47%
    12:00 +38°C° 0 mm 2 m/s 758 mmHg 42%
    13:00 +36°C° 0 mm 3 m/s 757 mmHg 48%
    14:00 +35°C° 0 mm 4 m/s 756 mmHg 53%
    15:00 +34°C° 0 mm 6 m/s 755 mmHg 59%
    16:00 +33°C° 0 mm 5 m/s 756 mmHg 64%
    17:00 +32°C° 0 mm 5 m/s 756 mmHg 69%
    18:00 +30°C° 0 mm 5 m/s 756 mmHg 74%
    19:00 +29°C° 0 mm 5 m/s 756 mmHg 77%
    20:00 +29°C° 0 mm 5 m/s 757 mmHg 80%
    21:00 +28°C° 0 mm 4 m/s 757 mmHg 83%
    22:00 +28°C° 0 mm 4 m/s 757 mmHg 85%
    23:00 +27°C° 0 mm 4 m/s 757 mmHg 87%

    30 Janeiro, Quinta-feira

    Tempo Temperatura Precipitação Vento Pressão Humidade
    00:00 +27°C° 0 mm 4 m/s 757 mmHg 89%
    01:00 +26°C° 0 mm 3 m/s 757 mmHg 90%
    02:00 +26°C° 0 mm 3 m/s 757 mmHg 91%
    03:00 +26°C° 0 mm 3 m/s 756 mmHg 92%
    04:00 +26°C° 0 mm 2 m/s 757 mmHg 92%
    05:00 +25°C° 0 mm 2 m/s 757 mmHg 92%
    06:00 +25°C° 0 mm 2 m/s 758 mmHg 92%
    07:00 +27°C° 0 mm 1 m/s 758 mmHg 82%
    08:00 +30°C° 0 mm 1 m/s 759 mmHg 73%
    09:00 +30°C° 0 mm 0 m/s 759 mmHg 63%
    10:00 +33°C° 0 mm 1 m/s 759 mmHg 56%
    11:00 +36°C° 0 mm 3 m/s 758 mmHg 49%
    12:00 +37°C° 0 mm 4 m/s 758 mmHg 42%
    13:00 +36°C° 0 mm 4 m/s 757 mmHg 48%
    14:00 +35°C° 0 mm 5 m/s 757 mmHg 54%
    15:00 +34°C° 0 mm 6 m/s 756 mmHg 59%
    16:00 +33°C° 0 mm 6 m/s 756 mmHg 65%
    17:00 +32°C° 0 mm 6 m/s 756 mmHg 70%
    18:00 +30°C° 0 mm 6 m/s 756 mmHg 76%
    19:00 +29°C° 0 mm 6 m/s 757 mmHg 78%
    20:00 +29°C° 0 mm 6 m/s 757 mmHg 81%
    21:00 +29°C° 0 mm 6 m/s 758 mmHg 83%
    22:00 +28°C° 0 mm 5 m/s 758 mmHg 85%
    23:00 +28°C° 0 mm 5 m/s 758 mmHg 87%

    31 Janeiro, Sexta-feira

    Tempo Temperatura Precipitação Vento Pressão Humidade
    00:00 +27°C° 0 mm 5 m/s 758 mmHg 89%
    01:00 +27°C° 0 mm 4 m/s 758 mmHg 90%
    02:00 +27°C° 0 mm 4 m/s 757 mmHg 90%
    03:00 +27°C° 0 mm 4 m/s 757 mmHg 90%
    04:00 +27°C° 0 mm 3 m/s 758 mmHg 90%
    05:00 +27°C° 0 mm 3 m/s 758 mmHg 89%
    06:00 +27°C° 0 mm 2 m/s 758 mmHg 88%
    07:00 +28°C° 0 mm 2 m/s 759 mmHg 82%
    08:00 +29°C° 0 mm 2 m/s 760 mmHg 75%
    09:00 +31°C° 0 mm 2 m/s 760 mmHg 68%
    10:00 +31°C° 0.1 mm 3 m/s 760 mmHg 65%
    11:00 +33°C° 0.1 mm 3 m/s 759 mmHg 63%
    12:00 +34°C° 0.1 mm 3 m/s 759 mmHg 60%
    13:00 +34°C° 0 mm 4 m/s 758 mmHg 58%
    14:00 +34°C° 0 mm 4 m/s 757 mmHg 56%
    15:00 +35°C° 0 mm 5 m/s 757 mmHg 54%
    16:00 +33°C° 0 mm 5 m/s 757 mmHg 59%
    17:00 +32°C° 0 mm 5 m/s 757 mmHg 65%
    18:00 +30°C° 0 mm 5 m/s 757 mmHg 70%
    19:00 +30°C° 0 mm 5 m/s 757 mmHg 73%
    20:00 +29°C° 0 mm 5 m/s 758 mmHg 76%
    21:00 +29°C° 0 mm 6 m/s 758 mmHg 79%
    22:00 +29°C° 0 mm 5 m/s 758 mmHg 81%
    23:00 +28°C° 0 mm 5 m/s 758 mmHg 83%
    Mostrar mais